Theta_e
332 326 327 322 313 314 312 312 315 314 315 317 318 317 319 327 325 323 351 353 356 361 368 363 364 366 366 365 364 362 362 362 363 362 362 362 361 362 362 363 363 364 361 359 357 355 354 354 354
328 325 324 318 309 308 311 314 312 315 316 317 317 317 322 330 330 335 350 355 357 363 368 362 364 365 366 365 364 363 363 364 363 363 362 362 362 362 362 362 363 363 360 358 356 354 354 354 354
326 326 316 311 309 306 309 313 314 315 316 315 314 317 323 322 330 340 353 357 360 365 368 365 363 364 365 364 364 364 364 363 363 363 362 361 361 361 361 362 363 362 359 358 356 354 354 353 354
323 319 313 306 307 310 311 313 313 313 315 315 314 313 325 334 334 347 360 358 359 364 366 363 362 363 363 364 363 363 363 362 362 362 361 361 361 361 360 362 363 362 359 357 355 354 354 353 353
321 315 307 306 308 308 311 311 312 311 312 314 314 312 315 333 338 347 360 358 359 362 364 365 363 362 362 363 363 363 362 362 361 361 361 361 360 360 361 362 362 362 360 358 354 353 354 355 354
313 313 304 305 307 307 309 312 312 311 312 313 312 312 317 324 336 343 358 360 359 360 363 365 362 362 361 361 362 361 361 361 361 360 360 360 360 361 361 362 362 362 361 358 354 353 352 352 353
310 308 304 305 304 305 308 312 310 309 310 311 313 310 316 318 335 343 352 362 360 361 360 363 360 361 360 360 360 360 359 359 359 359 358 359 360 360 361 361 361 361 360 356 353 352 351 350 350
314 310 303 305 303 304 309 309 310 309 308 314 313 311 312 318 326 340 346 359 360 360 360 361 360 357 355 355 360 359 359 359 358 358 358 359 359 360 361 359 360 360 357 354 352 350 350 349 349
312 305 302 304 304 306 309 306 311 311 310 311 312 313 315 317 319 328 337 344 358 358 360 360 359 358 355 353 355 358 358 359 358 359 358 356 351 354 359 354 359 358 355 353 351 350 349 348 347
307 303 303 307 307 305 306 306 307 306 308 309 310 314 315 317 317 317 320 334 344 355 357 359 361 359 357 352 356 352 352 354 354 353 357 351 351 352 351 355 358 356 353 352 350 350 348 346 340
305 301 305 305 305 305 305 305 308 305 305 309 308 311 314 315 316 316 317 318 332 344 358 358 361 362 358 354 355 351 351 350 350 351 356 353 350 352 352 355 354 355 352 348 347 345 341 339 338
302 304 304 305 305 305 304 307 305 306 307 311 311 312 312 313 314 315 316 317 318 328 345 359 360 361 362 356 354 353 351 351 350 351 355 351 351 353 353 351 351 350 346 344 343 340 340 341 342
301 302 303 305 305 305 305 303 303 304 308 310 310 311 311 312 314 316 317 318 319 320 328 350 362 362 361 360 355 354 352 351 353 353 354 350 350 351 352 351 348 348 345 344 343 341 342 344 346
302 302 303 304 304 304 302 303 304 305 308 308 309 310 311 312 313 315 316 317 319 321 324 331 353 360 361 360 360 356 355 354 353 353 353 353 350 351 351 352 350 348 345 344 343 340 341 343 346
303 299 302 303 303 302 304 300 301 307 308 307 309 310 310 312 313 314 316 317 319 320 323 327 333 354 359 362 361 358 355 354 352 351 355 354 353 353 352 350 348 347 348 347 346 342 343 344 347
299 300 297 302 302 303 301 296 304 307 307 307 308 309 310 312 313 315 316 318 320 322 324 326 325 331 354 360 360 358 357 355 353 352 352 355 354 353 352 347 347 348 348 346 343 341 339 344 347
299 295 296 298 303 301 301 298 304 308 307 306 308 309 310 311 314 316 317 318 320 322 325 327 330 329 345 360 359 361 363 357 354 353 351 354 354 353 351 347 347 355 347 344 341 339 342 344 347
294 295 296 296 301 303 301 300 305 307 307 307 308 309 309 310 312 316 317 319 321 322 326 329 330 334 348 352 358 356 356 357 356 354 352 354 353 353 352 349 350 350 346 344 343 345 344 346 347
296 296 295 299 303 300 300 301 303 307 307 307 308 309 310 311 315 316 317 319 319 321 325 329 331 336 343 343 348 352 351 353 355 356 359 355 355 353 353 349 349 349 346 346 350 345 347 347 351
297 295 296 300 301 300 300 300 304 307 307 308 309 309 311 312 313 314 316 317 319 321 323 327 330 334 336 339 350 351 350 352 353 356 357 357 355 354 353 352 349 350 343 348 351 350 342 347 350
298 296 296 296 299 302 300 299 302 306 307 308 308 309 310 311 311 313 315 317 319 320 323 325 328 331 338 345 347 351 352 353 349 347 349 354 355 354 354 352 350 352 349 342 352 351 351 342 347
295 300 298 297 296 293 301 290 300 302 303 305 307 309 310 310 311 313 315 316 318 319 321 323 326 330 333 344 343 352 344 342 344 347 348 348 355 354 353 353 350 351 345 345 349 351 350 352 344
297 300 298 298 296 296 297 293 298 302 300 302 306 307 308 310 310 312 314 317 320 321 322 325 326 327 332 343 347 344 345 342 344 345 346 346 349 354 351 352 351 350 345 349 355 356 356 350 346
301 299 299 299 297 290 296 294 295 299 300 302 305 307 308 310 311 313 315 317 319 321 322 325 327 329 329 336 345 346 345 345 342 346 343 344 347 348 353 349 351 351 350 352 352 355 354 357 353
299 297 291 291 290 290 296 293 296 302 303 303 304 306 308 310 311 313 313 315 317 318 319 321 323 326 329 333 340 344 345 347 347 347 344 345 344 344 350 352 353 350 352 351 354 355 355 356 350
296 296 291 283 287 290 296 290 298 302 305 305 306 308 309 309 311 311 312 314 315 316 318 319 320 321 325 328 331 341 343 344 344 349 347 346 347 345 351 354 350 350 349 349 353 351 354 355 350
296 293 298 291 293 289 293 297 301 304 302 304 304 306 307 309 310 311 312 313 313 315 316 317 318 320 322 324 328 330 338 341 345 348 352 350 352 352 350 352 349 349 347 348 353 352 351 348 341
298 300 291 291 283 283 290 293 294 299 300 303 303 303 306 308 308 309 310 312 313 314 315 317 318 318 319 322 323 326 328 334 343 344 348 350 351 352 350 349 349 348 348 348 351 344 342 333 326
295 294 294 294 291 284 284 290 301 300 302 302 303 304 305 306 306 307 308 309 310 311 312 314 315 316 317 319 321 323 327 329 333 341 342 347 350 352 350 348 347 346 346 345 336 334 326 325 316
299 297 295 288 288 290 289 289 303 302 302 302 301 303 304 304 304 305 305 306 307 307 309 311 314 314 316 317 319 321 326 329 331 335 341 346 346 350 349 349 341 338 334 330 323 322 323 314 306
Wind_Speed
14 7 5 6 9 6 4 6 3 1 0 8 10 6 9 2 11 8 7 6 3 15 17 17 13 15 17 17 19 18 19 19 18 18 17 18 18 17 16 15 13 12 12 12 12 11 11 11 11
9 5 6 4 9 9 7 6 8 3 7 10 7 6 1 15 14 7 9 6 6 15 15 18 13 14 16 16 17 18 19 19 19 18 17 17 17 16 16 15 13 13 13 12 11 11 11 11 11
8 6 7 5 9 11 8 5 5 4 7 9 6 5 6 8 13 11 14 3 10 15 15 16 14 14 16 16 16 17 18 18 19 18 17 17 16 16 15 14 12 12 12 12 11 10 10 10 11
5 6 5 10 15 4 6 4 1 3 3 2 7 4 7 12 9 13 9 3 11 14 15 18 13 14 15 16 16 17 17 17 17 17 18 18 16 14 13 13 12 12 12 11 10 9 9 9 10
4 4 10 13 14 3 4 2 3 5 3 5 7 3 2 7 11 11 5 3 10 14 14 15 12 13 15 17 16 16 16 17 16 15 15 15 15 14 13 12 12 11 11 10 10 9 8 8 9
6 5 10 15 14 5 6 2 5 4 3 5 5 9 4 5 12 11 7 3 9 13 13 16 13 12 13 15 16 15 15 15 15 15 15 14 14 13 12 11 10 10 10 10 9 8 8 7 8
11 8 13 14 8 8 4 4 2 5 7 3 10 8 3 10 10 8 6 1 6 12 13 15 16 14 12 13 15 15 15 14 14 13 14 14 13 13 12 11 10 10 9 9 9 9 8 7 7
5 5 8 10 11 10 6 5 3 8 8 8 2 2 5 12 9 6 4 1 7 10 12 14 15 16 15 14 11 14 15 15 15 14 14 14 14 13 12 11 10 10 10 10 9 9 8 8 7
2 7 11 13 9 2 3 6 2 6 13 6 8 10 7 7 10 9 4 2 4 8 11 13 14 15 15 15 13 12 13 14 15 14 14 12 11 13 15 14 16 11 11 10 10 9 9 8 8
8 8 8 7 4 7 6 8 11 10 12 11 10 8 7 8 9 7 7 3 2 8 11 12 13 14 14 11 14 14 13 12 12 13 14 12 11 11 12 11 11 11 11 11 10 10 9 9 9
2 8 4 5 3 6 11 11 8 12 16 12 12 11 12 13 10 9 7 5 6 2 8 13 13 13 14 12 10 9 8 9 9 14 13 12 9 9 8 7 8 9 10 9 10 10 9 11 7
8 1 5 2 8 12 14 14 14 15 17 15 15 16 14 15 12 11 10 8 6 5 5 11 13 14 14 11 10 11 10 10 10 12 14 11 8 9 9 7 10 9 9 9 9 8 9 7 9
8 2 5 8 12 14 15 17 19 18 14 17 15 14 15 14 12 11 8 9 6 7 7 10 12 14 14 15 11 11 12 11 12 12 14 12 11 10 10 8 8 8 8 9 8 7 7 9 9
2 8 11 12 11 10 13 15 12 11 9 9 10 13 13 13 14 13 12 11 7 7 7 10 13 15 15 14 15 12 12 12 12 12 13 16 12 10 10 9 9 9 8 8 8 7 8 8 9
6 12 10 8 5 10 7 18 22 15 14 15 14 15 15 16 16 16 14 12 12 9 7 7 12 14 17 17 17 13 12 13 13 13 15 17 15 12 12 11 10 9 8 8 7 7 8 8 7
10 7 8 11 9 7 5 16 14 6 10 18 18 18 18 19 19 19 17 16 14 12 12 10 10 14 17 16 15 14 13 13 13 13 13 17 17 14 13 11 11 10 9 9 9 9 9 9 9
9 8 11 8 11 8 13 19 14 12 17 20 22 21 20 21 21 21 20 18 17 15 14 12 11 14 16 17 15 15 15 14 13 13 13 18 17 16 12 11 10 9 8 9 8 8 8 9 8
11 14 12 14 7 16 20 24 19 15 17 21 21 21 22 23 24 21 20 18 16 16 15 14 11 12 14 13 12 11 9 10 13 14 13 17 15 17 14 10 10 11 10 10 9 9 9 8 9
12 15 17 16 13 15 21 26 23 20 19 20 21 21 22 23 21 18 17 16 15 16 15 14 12 11 11 12 9 11 10 11 13 13 17 17 16 16 16 12 12 12 11 10 11 10 10 9 7
14 17 17 15 10 16 21 31 25 20 13 15 17 19 19 17 16 14 13 14 14 15 15 14 13 12 12 12 11 12 11 9 12 9 9 15 17 17 16 14 13 15 11 11 9 12 11 10 9
14 16 17 20 18 17 15 22 4 13 9 10 8 9 12 13 13 11 12 11 13 14 15 14 13 12 12 14 11 10 8 7 5 6 7 15 18 17 17 17 13 13 12 12 12 13 13 11 9
18 10 12 17 14 12 12 15 17 7 8 7 9 10 11 11 8 9 7 9 8 9 11 13 12 12 12 14 13 14 13 14 12 13 10 11 15 18 18 16 15 12 13 13 12 12 13 12 12
11 10 15 17 19 20 17 12 6 7 6 6 7 7 3 2 5 7 7 9 7 6 6 7 8 10 12 12 14 11 14 11 11 9 11 11 11 18 18 17 16 15 12 12 13 14 14 11 11
12 15 19 21 14 12 14 12 10 4 8 10 13 10 12 14 10 7 6 6 7 7 7 7 8 9 8 12 13 15 14 15 10 13 11 9 8 11 18 18 16 16 14 14 15 15 15 13 9
6 13 8 5 9 10 6 11 15 17 9 13 11 12 9 9 9 8 6 9 8 8 10 9 10 10 9 10 11 13 15 14 16 15 11 11 9 10 16 19 16 15 15 14 14 15 14 12 11
16 8 7 8 9 15 21 11 3 3 10 10 8 9 7 5 7 7 6 9 10 10 12 12 11 11 12 8 9 9 9 10 10 13 8 9 12 13 16 18 18 18 18 16 15 13 11 12 9
4 8 9 13 19 17 11 15 16 16 7 10 7 6 8 8 8 9 10 10 12 14 15 15 14 12 11 11 8 8 10 9 13 14 11 10 14 10 16 19 19 19 18 17 15 11 11 9 9
13 7 5 4 6 13 12 19 11 11 14 14 13 14 14 15 17 15 13 15 15 16 16 16 16 15 12 12 11 8 8 10 11 11 13 12 14 15 16 15 18 19 17 16 11 10 11 13 10
6 9 8 7 9 8 13 7 18 22 16 15 14 20 22 23 24 24 24 19 18 20 19 17 16 16 14 12 11 11 10 9 11 11 10 12 12 14 14 15 14 16 13 10 12 13 16 16 17
16 17 14 7 10 8 10 19 8 1 11 16 19 18 21 23 24 23 23 25 22 20 21 18 16 15 15 13 12 11 10 10 10 12 14 11 11 13 14 15 9 9 12 11 13 16 17 18 15
Wind_Direction
278 279 272 248 249 239 207 146 333 226 17 2 338 321 347 300 23 18 0 324 201 164 152 171 162 154 149 151 148 151 150 149 153 155 155 151 149 150 147 144 144 144 142 143 141 139 140 139 134
306 275 227 274 261 237 184 126 211 333 352 336 337 327 24 86 25 326 360 10 164 157 159 172 163 158 149 150 149 152 151 152 153 155 155 154 151 152 150 150 149 148 148 148 145 144 144 143 139
267 258 263 253 254 260 275 147 109 300 320 352 343 33 19 1 3 353 350 279 172 157 161 158 161 161 152 151 152 153 152 153 152 153 154 154 154 154 153 151 148 151 152 151 149 147 149 148 145
238 194 214 247 253 210 334 112 112 268 247 345 344 90 117 47 7 353 348 150 159 164 168 129 161 162 155 152 155 154 151 152 153 156 155 156 156 155 153 151 150 152 152 154 150 150 156 157 156
224 254 250 248 259 19 208 285 293 275 301 314 335 35 17 50 15 14 23 169 171 168 170 154 161 166 157 155 156 155 154 153 155 156 155 155 153 152 151 151 152 153 153 153 152 157 162 165 166
216 284 244 255 247 172 228 243 270 251 272 301 321 315 77 24 18 14 18 164 176 170 173 154 154 163 160 159 157 157 156 155 155 155 156 156 153 154 150 153 155 153 153 155 154 162 164 171 179
266 243 261 278 280 225 189 301 291 316 276 267 332 291 16 26 12 17 42 130 193 175 178 163 171 166 159 160 160 158 157 156 155 155 157 155 155 155 155 159 160 158 153 152 156 168 169 180 192
273 266 255 243 257 254 96 302 302 302 300 336 269 281 319 358 345 343 32 47 178 184 181 182 177 176 179 170 166 163 161 159 159 158 161 159 158 160 160 156 166 161 156 157 163 172 173 185 199
257 247 247 247 250 215 134 297 247 316 280 285 294 291 328 326 337 327 337 99 187 184 190 192 179 181 191 173 165 166 172 164 161 161 161 159 186 180 168 194 148 166 164 164 171 178 182 192 206
245 248 276 23 349 287 303 288 310 295 282 275 271 269 293 314 314 303 318 322 224 199 203 198 185 198 196 181 164 186 179 186 188 185 178 195 195 187 190 162 156 171 168 170 177 183 188 208 198
147 274 84 190 316 298 293 281 282 283 276 276 297 295 304 308 293 288 286 296 311 254 207 217 183 204 208 197 176 187 183 190 192 194 184 204 190 189 202 178 186 191 185 191 187 184 209 205 226
252 232 259 284 289 287 280 294 271 265 275 289 283 286 295 288 294 296 292 298 296 281 232 222 217 199 213 203 192 191 192 191 195 195 192 199 197 191 203 201 194 202 182 211 193 194 208 209 223
253 166 244 267 275 278 288 272 276 277 273 270 280 282 273 275 280 280 292 287 276 254 265 223 221 209 210 223 196 205 202 194 200 192 195 199 201 194 199 200 206 195 200 190 201 210 196 205 213
65 280 278 272 280 271 270 279 274 267 264 252 262 268 267 275 280 276 271 275 287 290 281 273 217 216 217 221 220 205 202 193 203 198 197 205 203 188 198 208 207 203 207 205 201 198 199 217 212
294 280 269 243 208 288 321 268 251 257 264 269 273 264 250 266 269 266 269 272 271 278 283 270 262 228 216 212 218 214 206 211 202 203 199 198 205 191 205 205 207 206 198 211 209 196 211 215 216
259 245 253 144 255 272 238 283 278 304 260 274 278 278 268 264 263 264 263 259 257 262 271 270 277 247 218 220 216 216 214 209 207 206 197 199 198 201 204 206 204 203 194 202 206 202 202 212 210
196 303 305 302 197 274 266 291 275 261 259 269 274 270 267 265 258 254 256 253 257 252 260 262 258 248 228 216 224 220 219 213 212 207 204 197 198 200 207 215 204 196 200 200 202 210 214 200 221
317 304 302 297 307 296 292 284 286 290 271 265 263 262 262 262 259 259 257 259 259 262 252 251 248 248 233 222 214 227 224 217 220 210 210 196 202 194 201 206 205 203 200 201 200 208 202 222 211
292 288 293 296 316 297 298 292 294 291 277 268 261 254 254 259 266 266 257 260 265 258 251 247 236 237 228 220 210 215 209 209 219 221 210 204 197 197 202 204 193 205 212 208 187 192 211 209 203
282 287 286 304 305 318 302 293 296 278 269 264 268 268 262 261 261 265 267 259 254 260 260 254 243 229 228 225 214 217 218 218 227 228 209 207 204 200 203 206 189 195 196 207 197 201 198 218 195
278 289 297 303 311 279 295 289 167 340 283 290 284 288 272 259 272 274 271 287 280 255 254 246 243 241 221 233 209 204 220 211 197 200 209 213 214 206 207 204 203 186 205 196 201 199 207 205 200
290 332 310 297 303 302 335 293 297 317 310 273 277 284 266 246 280 255 280 292 299 278 273 263 257 254 232 218 233 204 215 218 216 215 207 216 211 213 206 206 208 190 199 203 184 207 199 227 197
293 327 296 290 282 289 274 252 286 271 302 349 331 347 331 232 315 299 314 325 321 323 316 296 298 274 257 213 228 207 218 228 216 211 198 205 208 213 212 209 204 202 208 201 204 201 201 204 224
313 287 285 264 265 255 256 232 278 289 345 311 313 319 327 337 340 306 306 313 326 333 344 347 336 337 275 251 222 228 220 223 206 215 205 199 198 205 209 211 208 208 207 198 203 199 199 227 219
264 310 301 265 201 251 139 266 257 289 308 318 318 318 326 331 294 295 318 322 320 334 344 342 353 338 337 296 247 230 240 229 229 219 199 193 193 202 208 207 206 206 203 205 204 200 203 204 194
300 292 284 294 301 311 316 261 74 277 303 292 339 333 346 338 346 324 331 321 320 324 325 327 334 333 328 321 303 241 254 253 234 230 209 218 205 194 209 207 206 211 205 208 200 202 200 199 179
49 243 4 291 271 262 244 245 238 249 240 269 286 317 293 310 312 301 304 303 310 314 311 315 319 314 314 314 311 293 261 236 262 246 219 209 219 207 207 209 208 208 209 202 198 206 188 156 142
243 325 267 228 278 299 294 296 296 359 325 310 307 301 310 320 306 294 289 297 297 295 293 294 299 300 300 300 299 291 288 270 232 267 255 234 222 215 213 199 207 209 205 197 183 153 149 129 117
233 234 230 303 279 285 300 287 346 317 326 340 331 338 322 306 305 305 305 302 290 291 285 280 282 284 290 292 292 294 294 283 274 223 251 255 233 229 211 212 209 208 185 162 131 137 121 124 113
269 265 262 250 265 250 283 282 293 219 335 310 307 298 310 319 308 297 292 292 285 276 280 274 273 271 275 281 286 284 283 283 270 257 235 240 240 218 214 210 170 145 121 107 122 125 131 124 120